sat.trackr.live / text

‹ back to catalog

STARLINK-32242

NORAD 60429 · 2024-144E

PAYLOAD ACTIVE UNKNOWN

§ Identity

Operator
Country
US
Launch date
2024-08-12
Launch site
AFETR
Launch vehicle
Mass (kg)
RCS (m²)

Purposes: comms

External: N2YO · Heavens-Above · Gunter

§ Orbital elements

Epoch: 2026-09-21T19:42:30.261312Z

Period
93.85 min
Inclination
53.1612°
Eccentricity
0.0001073
Mean motion
15.34395044 rev/d
Perigee alt
462.0 km
Apogee alt
463.5 km
Semi-major
6,840.9 km
B*
2.7771e-5
RAAN
23.5784°
Arg perigee
86.0293°
Mean anomaly
274.0832°
Rev number
11,941

§ Raw data

STARLINK-322421 60429U 24144E   26264.82118358  .00000562  00000+0  27771-4 0  99922 60429  53.1612  23.5784 0001073  86.0293 274.0832 15.34395044119419

JSON: /api/v1/satellites/60429 · /tle

For live sub-satellite position, see the globe view (requires WebGL).

§ Visibility from observer

Set your observer location to see the next 7 days of passes ≥ 10°. The values pass through the URL so the page stays shareable.

No JS? Fill the form by hand. The geolocation button needs JavaScript.